| time (UTC) | temp C | wind direction | speed KPH | gust KPH | rain 1hr cm | rain 24hr cm | rain mn cm | humidity % | barometer mb |
| 20260905154327 | 22 | 290 | 1.6 | 4.8 | 0.00 | 0.00 | 0.00 | 72 | 1010.8 |
| 20260905153320 | 22 | 338 | 1.6 | 6.4 | 0.00 | 0.00 | 0.00 | 72 | 1010.8 |
| 20260905152337 | 22 | 286 | 0.0 | 1.6 | 0.00 | 0.00 | 0.00 | 75 | 1010.9 |
| 20260905151330 | 21 | 281 | 1.6 | 4.8 | 0.00 | 0.00 | 0.00 | 76 | 1011.0 |
| 20260905150324 | 21 | 356 | 0.0 | 4.8 | 0.00 | 0.00 | 0.00 | 79 | 1011.0 |
| 20260905145316 | 21 | 359 | 1.6 | 6.4 | 0.00 | 0.00 | 0.00 | 79 | 1011.3 |
| 20260905144333 | 21 | 317 | 0.0 | 3.2 | 0.00 | 0.00 | 0.00 | 82 | 1011.0 |
| 20260905143323 | 20 | 2 | 1.6 | 3.2 | 0.00 | 0.00 | 0.00 | 84 | 1010.9 |
| 20260905142316 | 20 | 288 | 0.0 | 1.6 | 0.00 | 0.00 | 0.00 | 86 | 1010.8 |
| 20260905141335 | 19 | 290 | 0.0 | 1.6 | 0.00 | 0.00 | 0.00 | 86 | 1011.0 |
| 20260905140325 | 19 | 349 | 0.0 | 1.6 | 0.00 | 0.00 | 0.00 | 87 | 1011.1 |
| 20260905135316 | 18 | 338 | 0.0 | 1.6 | 0.00 | 0.00 | 0.00 | 88 | 1011.1 |
| 20260905134337 | 18 | 276 | 0.0 | 1.6 | 0.00 | 0.00 | 0.00 | 90 | 1011.4 |
| 20260905133327 | 18 | 281 | 0.0 | 3.2 | 0.00 | 0.00 | 0.00 | 91 | 1011.4 |
| 20260905132315 | 17 | 281 | 0.0 | 1.6 | 0.00 | 0.00 | 0.00 | 95 | 1011.3 |
| 20260905131313 | 17 | 274 | 0.0 | 1.6 | 0.00 | 0.00 | 0.00 | 97 | 1011.4 |
| 20260905130334 | 16 | 271 | 0.0 | 1.6 | 0.00 | 0.00 | 0.00 | 98 | 1011.3 |
| 20260905125330 | 16 | 271 | 0.0 | 0.0 | 0.00 | 0.00 | 0.00 | 98 | 1011.4 |
| 20260905124325 | 16 | 271 | 0.0 | 0.0 | 0.00 | 0.00 | 0.00 | 98 | 1011.4 |
| 20260905123338 | 16 | 271 | 0.0 | 0.0 | 0.00 | 0.00 | 0.00 | 98 | 1011.4 |
| 20260905122335 | 15 | 271 | 0.0 | 0.0 | 0.00 | 0.00 | 0.00 | 98 | 1011.7 |
| 20260905121330 | 15 | 271 | 0.0 | 0.0 | 0.00 | 0.00 | 0.00 | 98 | 1011.7 |
| 20260905120338 | 15 | 271 | 0.0 | 0.0 | 0.00 | 0.00 | 0.00 | 98 | 1011.6 |
| 20260905115329 | 15 | 271 | 0.0 | 0.0 | 0.00 | 0.00 | 0.00 | 98 | 1011.4 |
| 20260905114317 | 14 | 271 | 0.0 | 0.0 | 0.00 | 0.00 | 0.00 | 97 | 1011.2 |
| 20260905113324 | 14 | 271 | 0.0 | 0.0 | 0.00 | 0.00 | 0.00 | 97 | 1011.1 |
| 20260905112331 | 13 | 271 | 0.0 | 0.0 | 0.00 | 0.00 | 0.00 | 97 | 1011.1 |
| 20260905111319 | 13 | 271 | 0.0 | 0.0 | 0.00 | 0.00 | 0.00 | 97 | 1010.9 |
| 20260905110328 | 13 | 271 | 0.0 | 0.0 | 0.00 | 0.00 | 0.00 | 97 | 1010.8 |
| 20260905105317 | 13 | 271 | 0.0 | 0.0 | 0.00 | 0.00 | 0.00 | 97 | 1010.7 |
| 20260905104326 | 13 | 271 | 0.0 | 0.0 | 0.00 | 0.00 | 0.00 | 97 | 1010.6 |
| 20260905103316 | 13 | 271 | 0.0 | 0.0 | 0.00 | 0.00 | 0.00 | 97 | 1010.6 |
| 20260905102323 | 13 | 271 | 0.0 | 0.0 | 0.00 | 0.00 | 0.00 | 96 | 1010.5 |
| 20260905101312 | 13 | 271 | 0.0 | 0.0 | 0.00 | 0.00 | 0.00 | 96 | 1010.5 |
| 20260905100319 | 13 | 271 | 0.0 | 0.0 | 0.00 | 0.00 | 0.00 | 97 | 1010.5 |
| 20260905095327 | 13 | 271 | 0.0 | 0.0 | 0.00 | 0.00 | 0.00 | 96 | 1010.5 |
| 20260905094336 | 13 | 271 | 0.0 | 0.0 | 0.00 | 0.00 | 0.00 | 96 | 1010.4 |
| 20260905093324 | 14 | 271 | 0.0 | 0.0 | 0.00 | 0.00 | 0.00 | 96 | 1010.4 |
| 20260905092314 | 14 | 271 | 0.0 | 0.0 | 0.00 | 0.00 | 0.00 | 96 | 1010.3 |
| 20260905091330 | 14 | 271 | 0.0 | 0.0 | 0.00 | 0.00 | 0.00 | 96 | 1010.3 |
| 20260905090323 | 14 | 271 | 0.0 | 0.0 | 0.00 | 0.00 | 0.00 | 96 | 1010.3 |
| 20260905085312 | 14 | 271 | 0.0 | 0.0 | 0.00 | 0.36 | 0.00 | 96 | 1010.4 |
| 20260905084327 | 15 | 271 | 0.0 | 0.0 | 0.00 | 0.36 | 0.00 | 96 | 1010.5 |
| 20260905083343 | 15 | 271 | 0.0 | 0.0 | 0.00 | 0.36 | 0.00 | 96 | 1010.5 |
| 20260905082328 | 15 | 271 | 0.0 | 0.0 | 0.00 | 0.36 | 0.00 | 96 | 1010.4 |
| 20260905081315 | 15 | 271 | 0.0 | 0.0 | 0.00 | 0.36 | 0.00 | 96 | 1010.4 |
| 20260905080324 | 15 | 271 | 0.0 | 0.0 | 0.00 | 0.36 | 0.00 | 96 | 1010.5 |
| 20260905075314 | 15 | 271 | 0.0 | 0.0 | 0.00 | 1.85 | 0.00 | 96 | 1010.4 |
| 20260905074322 | 15 | 271 | 0.0 | 0.0 | 0.00 | 1.85 | 0.00 | 96 | 1010.3 |
| 20260905073331 | 15 | 271 | 0.0 | 0.0 | 0.00 | 1.85 | 0.00 | 96 | 1010.3 |
| 20260905072317 | 15 | 271 | 0.0 | 0.0 | 0.00 | 1.85 | 0.00 | 96 | 1010.2 |
| 20260905071352 | 15 | 271 | 0.0 | 0.0 | 0.00 | 1.85 | 0.00 | 96 | 1010.4 |
| 20260905070337 | 15 | 271 | 0.0 | 0.0 | 0.00 | 1.85 | 0.00 | 96 | 1010.5 |
| 20260905065326 | 15 | 271 | 0.0 | 0.0 | 0.00 | 1.85 | 0.00 | 96 | 1010.5 |
| 20260905064315 | 15 | 271 | 0.0 | 0.0 | 0.00 | 1.85 | 0.00 | 96 | 1010.5 |
| 20260905063331 | 16 | 271 | 0.0 | 0.0 | 0.00 | 1.85 | 0.00 | 96 | 1010.5 |
| 20260905062320 | 16 | 271 | 0.0 | 0.0 | 0.00 | 1.85 | 0.00 | 96 | 1010.7 |
| 20260905061328 | 16 | 271 | 0.0 | 0.0 | 0.00 | 1.85 | 0.00 | 96 | 1010.8 |
| 20260905060314 | 16 | 271 | 0.0 | 0.0 | 0.00 | 1.85 | 0.00 | 96 | 1010.9 |
| 20260905055330 | 16 | 271 | 0.0 | 0.0 | 0.00 | 1.85 | 0.00 | 95 | 1011.1 |
| 20260905054320 | 16 | 271 | 0.0 | 0.0 | 0.00 | 1.85 | 0.00 | 95 | 1011.1 |
| 20260905053355 | 16 | 271 | 0.0 | 0.0 | 0.00 | 1.85 | 0.00 | 96 | 1011.1 |
| 20260905052338 | 16 | 271 | 0.0 | 0.0 | 0.00 | 1.85 | 0.00 | 95 | 1011.2 |
| 20260905051325 | 16 | 271 | 0.0 | 0.0 | 0.00 | 1.85 | 0.00 | 96 | 1011.3 |
| 20260905050314 | 17 | 271 | 0.0 | 0.0 | 0.00 | 1.85 | 0.00 | 96 | 1011.4 |
| 20260905045328 | 17 | 271 | 0.0 | 0.0 | 0.00 | 1.85 | 0.00 | 96 | 1011.5 |
| 20260905044318 | 16 | 271 | 0.0 | 0.0 | 0.00 | 1.85 | 0.00 | 96 | 1011.6 |
| 20260905043329 | 17 | 271 | 0.0 | 0.0 | 0.00 | 1.85 | 0.00 | 96 | 1011.6 |
| 20260905042316 | 17 | 271 | 0.0 | 0.0 | 0.00 | 1.85 | 0.00 | 96 | 1011.4 |
| 20260905041327 | 17 | 271 | 0.0 | 0.0 | 0.00 | 1.85 | 0.00 | 96 | 1011.6 |
| 20260905040335 | 16 | 271 | 0.0 | 0.0 | 0.00 | 1.85 | 0.00 | 96 | 1011.6 |
| 20260905035336 | 16 | 271 | 0.0 | 0.0 | 0.00 | 1.85 | 1.85 | 96 | 1011.6 |
| 20260905034324 | 16 | 271 | 0.0 | 0.0 | 0.00 | 1.85 | 1.85 | 95 | 1011.6 |
| 20260905033332 | 17 | 271 | 0.0 | 0.0 | 0.00 | 1.85 | 1.85 | 95 | 1011.6 |
| 20260905032348 | 17 | 271 | 0.0 | 0.0 | 0.00 | 1.85 | 1.85 | 95 | 1011.5 |
| 20260905031314 | 17 | 271 | 0.0 | 0.0 | 0.00 | 1.85 | 1.85 | 96 | 1011.4 |
| 20260905030321 | 17 | 271 | 0.0 | 0.0 | 0.00 | 1.85 | 1.85 | 95 | 1011.6 |
| 20260905025329 | 17 | 271 | 0.0 | 0.0 | 0.00 | 1.85 | 1.85 | 95 | 1011.3 |
| 20260905024316 | 17 | 271 | 0.0 | 0.0 | 0.00 | 1.85 | 1.85 | 95 | 1011.3 |
| 20260905023324 | 17 | 271 | 0.0 | 0.0 | 0.00 | 1.85 | 1.85 | 94 | 1011.2 |
| 20260905022316 | 17 | 271 | 0.0 | 0.0 | 0.00 | 1.85 | 1.85 | 94 | 1011.3 |
| 20260905021347 | 17 | 271 | 0.0 | 0.0 | 0.00 | 1.85 | 1.85 | 94 | 1011.4 |
| 20260905020342 | 17 | 271 | 0.0 | 0.0 | 0.00 | 1.85 | 1.85 | 94 | 1011.3 |
| 20260905015314 | 17 | 271 | 0.0 | 0.0 | 0.00 | 1.85 | 1.85 | 94 | 1011.5 |
| 20260905014323 | 17 | 271 | 0.0 | 0.0 | 0.00 | 1.85 | 1.85 | 93 | 1011.5 |
| 20260905013332 | 17 | 271 | 0.0 | 0.0 | 0.00 | 1.85 | 1.85 | 93 | 1011.4 |
| 20260905012320 | 17 | 271 | 0.0 | 0.0 | 0.00 | 1.85 | 1.85 | 93 | 1011.5 |
| 20260905011335 | 18 | 271 | 0.0 | 0.0 | 0.00 | 1.85 | 1.85 | 92 | 1011.3 |
| 20260905010321 | 18 | 271 | 0.0 | 0.0 | 0.00 | 1.85 | 1.85 | 91 | 1011.4 |
| 20260905005328 | 18 | 271 | 0.0 | 0.0 | 0.00 | 1.85 | 1.85 | 91 | 1011.5 |
| 20260905004314 | 18 | 271 | 0.0 | 0.0 | 0.00 | 1.85 | 1.85 | 91 | 1011.5 |
| 20260905003323 | 18 | 271 | 0.0 | 0.0 | 0.00 | 1.85 | 1.85 | 90 | 1011.5 |
| 20260905002312 | 18 | 271 | 0.0 | 0.0 | 0.00 | 1.85 | 1.85 | 90 | 1011.4 |
| 20260905001320 | 19 | 271 | 0.0 | 0.0 | 0.00 | 1.85 | 1.85 | 90 | 1011.4 |
| 20260905000328 | 19 | 271 | 0.0 | 0.0 | 0.00 | 1.85 | 1.85 | 89 | 1011.2 |
| 20260904235318 | 20 | 271 | 0.0 | 0.0 | 0.00 | 1.85 | 1.85 | 88 | 1011.1 |
| 20260904234327 | 20 | 271 | 0.0 | 0.0 | 0.00 | 1.85 | 1.85 | 87 | 1011.0 |
| 20260904233334 | 20 | 271 | 0.0 | 0.0 | 0.00 | 1.85 | 1.85 | 86 | 1011.0 |
| 20260904232320 | 21 | 271 | 0.0 | 0.0 | 0.00 | 1.85 | 1.85 | 85 | 1011.0 |
| 20260904231328 | 22 | 271 | 0.0 | 0.0 | 0.00 | 1.85 | 1.85 | 84 | 1011.0 |
| 20260904230337 | 22 | 271 | 0.0 | 0.0 | 0.00 | 1.85 | 1.85 | 83 | 1011.0 |
| 20260904225323 | 23 | 271 | 0.0 | 0.0 | 0.00 | 1.85 | 1.85 | 80 | 1011.0 |
| 20260904224312 | 24 | 271 | 0.0 | 0.0 | 0.00 | 1.85 | 1.85 | 78 | 1011.0 |
| 20260904223324 | 25 | 271 | 0.0 | 0.0 | 0.00 | 1.85 | 1.85 | 77 | 1011.1 |
| 20260904222331 | 25 | 271 | 0.0 | 0.0 | 0.00 | 1.85 | 1.85 | 73 | 1011.0 |
| 20260904221317 | 25 | 271 | 0.0 | 0.0 | 0.00 | 1.85 | 1.85 | 71 | 1011.0 |
| 20260904220335 | 25 | 316 | 0.0 | 1.6 | 0.00 | 1.85 | 1.85 | 69 | 1011.0 |
| 20260904215323 | 26 | 11 | 0.0 | 1.6 | 0.00 | 1.85 | 1.85 | 66 | 1011.0 |
| 20260904214331 | 26 | 341 | 0.0 | 3.2 | 0.00 | 1.85 | 1.85 | 69 | 1011.0 |
| 20260904213338 | 26 | 11 | 1.6 | 3.2 | 0.00 | 1.85 | 1.85 | 60 | 1011.0 |
| 20260904212350 | 26 | 8 | 1.6 | 6.4 | 0.00 | 1.85 | 1.85 | 60 | 1011.0 |
| 20260904211337 | 26 | 334 | 0.0 | 3.2 | 0.00 | 1.85 | 1.85 | 62 | 1010.9 |
| 20260904210326 | 26 | 322 | 0.0 | 4.8 | 0.00 | 1.85 | 1.85 | 61 | 1011.1 |
| 20260904205336 | 26 | 14 | 1.6 | 3.2 | 0.00 | 1.85 | 1.85 | 59 | 1011.1 |
| 20260904204324 | 27 | 244 | 0.0 | 4.8 | 0.00 | 1.85 | 1.85 | 63 | 1011.2 |
| 20260904203329 | 27 | 278 | 0.0 | 3.2 | 0.00 | 1.85 | 1.85 | 60 | 1011.0 |
| 20260904202317 | 27 | 300 | 0.0 | 8.0 | 0.00 | 1.85 | 1.85 | 60 | 1011.1 |
| 20260904201330 | 26 | 8 | 0.0 | 4.8 | 0.00 | 1.85 | 1.85 | 61 | 1011.0 |
| 20260904200317 | 26 | 354 | 1.6 | 9.7 | 0.00 | 1.85 | 1.85 | 61 | 1011.1 |
| 20260904195334 | 26 | 285 | 1.6 | 8.0 | 0.00 | 1.85 | 1.85 | 60 | 1011.0 |
| 20260904194330 | 26 | 288 | 1.6 | 8.0 | 0.00 | 1.85 | 1.85 | 62 | 1011.1 |
| 20260904193315 | 26 | 21 | 3.2 | 6.4 | 0.00 | 1.85 | 1.85 | 60 | 1011.1 |
| 20260904192324 | 25 | 288 | 3.2 | 6.4 | 0.00 | 1.85 | 1.85 | 63 | 1011.1 |
| 20260904191313 | 25 | 274 | 0.0 | 4.8 | 0.00 | 1.85 | 1.85 | 66 | 1011.3 |
| 20260904190321 | 24 | 273 | 0.0 | 1.6 | 0.00 | 1.85 | 1.85 | 72 | 1011.5 |
| 20260904185314 | 24 | 312 | 0.0 | 0.0 | 0.00 | 1.85 | 1.85 | 74 | 1011.4 |
| 20260904184323 | 25 | 316 | 0.0 | 1.6 | 0.00 | 1.85 | 1.85 | 73 | 1011.5 |
| 20260904183312 | 25 | 285 | 0.0 | 4.8 | 0.00 | 1.85 | 1.85 | 64 | 1011.6 |
| 20260904182347 | 26 | 211 | 1.6 | 6.4 | 0.00 | 1.85 | 1.85 | 63 | 1011.5 |
| 20260904181314 | 26 | 319 | 0.0 | 8.0 | 0.00 | 1.85 | 1.85 | 64 | 1011.4 |
| 20260904180329 | 25 | 327 | 1.6 | 8.0 | 0.00 | 1.85 | 1.85 | 65 | 1011.4 |
| 20260904175316 | 25 | 259 | 0.0 | 4.8 | 0.00 | 1.85 | 1.85 | 65 | 1011.6 |
| 20260904174352 | 26 | 257 | 1.6 | 6.4 | 0.00 | 1.85 | 1.85 | 62 | 1011.4 |
| 20260904173319 | 26 | 283 | 1.6 | 6.4 | 0.00 | 1.85 | 1.85 | 62 | 1011.3 |
| 20260904172335 | 26 | 255 | 0.0 | 4.8 | 0.00 | 1.85 | 1.85 | 63 | 1011.3 |
| 20260904171324 | 25 | 278 | 0.0 | 4.8 | 0.00 | 1.85 | 1.85 | 65 | 1011.3 |
| 20260904170314 | 25 | 294 | 3.2 | 8.0 | 0.00 | 1.85 | 1.85 | 63 | 1011.5 |
| 20260904165322 | 25 | 316 | 1.6 | 11.3 | 0.00 | 1.85 | 1.85 | 68 | 1011.8 |
| 20260904164338 | 25 | 236 | 1.6 | 6.4 | 0.00 | 1.85 | 1.85 | 65 | 1011.9 |
| 20260904163328 | 25 | 204 | 1.6 | 4.8 | 0.00 | 1.85 | 1.85 | 65 | 1012.0 |
| 20260904162316 | 25 | 198 | 0.0 | 6.4 | 0.00 | 1.85 | 1.85 | 74 | 1011.8 |
| 20260904161332 | 25 | 63 | 1.6 | 8.0 | 0.00 | 1.85 | 1.85 | 68 | 1012.0 |
| 20260904160325 | 24 | 356 | 3.2 | 8.0 | 0.00 | 1.85 | 1.85 | 68 | 1012.0 |
| 20260904155322 | 23 | 357 | 3.2 | 11.3 | 0.00 | 1.85 | 1.85 | 72 | 1012.2 |